Time,TemperatureF,DewpointF,PressureIn,WindDirection,WindDirectionDegrees,WindSpeedMPH,WindSpeedGustMPH,Humidity,HourlyPrecipIn,Conditions,Clouds,dailyrainin,SoftwareType,DateUTC
2013-02-01 00:00:00,10.4,2.5,30.49,SSW,205,1.0,1.0,70,0.00,,,0.00,Wunderground v.1.15,2013-02-01 06:00:00,
2013-02-01 00:10:00,10.2,2.4,30.49,West,267,0.0,14.0,70,0.00,,,0.00,Wunderground v.1.15,2013-02-01 06:10:00,
2013-02-01 00:20:00,10.1,2.6,30.49,SW,220,0.0,14.0,71,0.00,,,0.00,Wunderground v.1.15,2013-02-01 06:20:00,
2013-02-01 00:30:00,10.1,2.6,30.49,SW,234,0.0,14.0,71,0.00,,,0.00,Wunderground v.1.15,2013-02-01 06:30:00,
2013-02-01 00:39:00,10.1,2.6,30.49,WSW,248,0.0,14.0,71,0.00,,,0.00,Wunderground v.1.15,2013-02-01 06:39:00,
2013-02-01 00:44:00,10.1,2.9,30.49,WSW,240,0.0,14.0,72,0.00,,,0.00,Wunderground v.1.15,2013-02-01 06:44:00,
2013-02-01 00:50:00,10.0,2.5,30.49,SSW,207,1.0,14.0,71,0.00,,,0.00,Wunderground v.1.15,2013-02-01 06:50:00,
2013-02-01 01:00:00,10.0,2.8,30.50,SSW,203,0.0,14.0,72,0.00,,,0.00,Wunderground v.1.15,2013-02-01 07:00:00,
2013-02-01 01:10:00,9.8,2.6,30.49,West,281,0.0,14.0,72,0.00,,,0.00,Wunderground v.1.15,2013-02-01 07:10:00,
2013-02-01 01:19:00,9.7,2.5,30.48,WSW,240,0.0,14.0,72,0.00,,,0.00,Wunderground v.1.15,2013-02-01 07:19:00,
2013-02-01 01:25:00,9.6,2.4,30.49,SW,226,0.0,14.0,72,0.00,,,0.00,Wunderground v.1.15,2013-02-01 07:25:00,
2013-02-01 01:35:00,9.5,2.6,30.50,SW,229,0.0,14.0,73,0.00,,,0.00,Wunderground v.1.15,2013-02-01 07:35:00,
2013-02-01 01:40:00,9.5,2.6,30.49,SSW,212,1.0,1.0,73,0.00,,,0.00,Wunderground v.1.15,2013-02-01 07:40:00,
2013-02-01 01:50:00,9.6,2.4,30.50,SE,146,1.0,1.0,72,0.00,,,0.00,Wunderground v.1.15,2013-02-01 07:50:00,
2013-02-01 01:59:00,9.6,2.4,30.49,SW,217,1.0,14.0,72,0.00,,,0.00,Wunderground v.1.15,2013-02-01 07:59:00,
2013-02-01 02:10:00,9.5,2.6,30.49,SW,220,0.0,14.0,73,0.00,,,0.00,Wunderground v.1.15,2013-02-01 08:10:00,
2013-02-01 02:20:00,9.3,2.4,30.49,SSW,194,0.0,14.0,73,0.00,,,0.00,Wunderground v.1.15,2013-02-01 08:20:00,
2013-02-01 02:25:00,9.2,2.3,30.49,SW,214,0.0,14.0,73,0.00,,,0.00,Wunderground v.1.15,2013-02-01 08:25:00,
2013-02-01 02:35:00,9.0,2.4,30.49,WSW,255,0.0,14.0,74,0.00,,,0.00,Wunderground v.1.15,2013-02-01 08:35:00,
2013-02-01 02:44:00,8.8,2.5,30.49,SW,215,0.0,14.0,75,0.00,,,0.00,Wunderground v.1.15,2013-02-01 08:44:00,
2013-02-01 02:55:00,8.9,2.6,30.49,East,98,0.0,14.0,75,0.00,,,0.00,Wunderground v.1.15,2013-02-01 08:55:00,
2013-02-01 03:05:00,8.8,2.8,30.49,ESE,120,0.0,14.0,76,0.00,,,0.00,Wunderground v.1.15,2013-02-01 09:05:00,
2013-02-01 03:10:00,8.6,2.6,30.49,WSW,238,0.0,14.0,76,0.00,,,0.00,Wunderground v.1.15,2013-02-01 09:10:00,
2013-02-01 03:20:00,8.3,2.6,30.49,SE,124,0.0,14.0,77,0.00,,,0.00,Wunderground v.1.15,2013-02-01 09:20:00,
2013-02-01 03:29:00,8.1,2.4,30.49,SW,221,0.0,14.0,77,0.00,,,0.00,Wunderground v.1.15,2013-02-01 09:29:00,
2013-02-01 03:35:00,8.0,2.3,30.49,West,277,0.0,14.0,77,0.00,,,0.00,Wunderground v.1.15,2013-02-01 09:35:00,
2013-02-01 03:45:00,8.1,2.7,30.48,SE,135,0.0,14.0,78,0.00,,,0.00,Wunderground v.1.15,2013-02-01 09:45:00,
2013-02-01 03:55:00,8.2,2.5,30.48,SSW,193,0.0,14.0,77,0.00,,,0.00,Wunderground v.1.15,2013-02-01 09:55:00,
2013-02-01 04:04:00,8.1,2.4,30.48,SW,235,0.0,14.0,77,0.00,,,0.00,Wunderground v.1.15,2013-02-01 10:04:00,
2013-02-01 04:15:00,7.8,2.1,30.48,SW,236,0.0,14.0,77,0.00,,,0.00,Wunderground v.1.15,2013-02-01 10:15:00,
2013-02-01 04:25:00,7.6,1.9,30.49,SE,141,0.0,14.0,77,0.00,,,0.00,Wunderground v.1.15,2013-02-01 10:25:00,
2013-02-01 04:35:00,7.5,1.8,30.48,ESE,108,0.0,14.0,77,0.00,,,0.00,Wunderground v.1.15,2013-02-01 10:35:00,
2013-02-01 04:44:00,7.5,1.8,30.48,West,271,0.0,14.0,77,0.00,,,0.00,Wunderground v.1.15,2013-02-01 10:44:00,
2013-02-01 04:55:00,7.4,2.0,30.48,SW,231,0.0,14.0,78,0.00,,,0.00,Wunderground v.1.15,2013-02-01 10:55:00,
2013-02-01 05:05:00,7.4,2.0,30.48,ESE,103,0.0,14.0,78,0.00,,,0.00,Wunderground v.1.15,2013-02-01 11:05:00,
2013-02-01 05:15:00,7.0,1.6,30.48,ESE,115,0.0,14.0,78,0.00,,,0.00,Wunderground v.1.15,2013-02-01 11:15:00,
2013-02-01 05:25:00,6.9,1.8,30.48,ESE,115,0.0,14.0,79,0.00,,,0.00,Wunderground v.1.15,2013-02-01 11:25:00,
2013-02-01 05:35:00,6.6,1.7,30.49,ESE,116,0.0,14.0,80,0.00,,,0.00,Wunderground v.1.15,2013-02-01 11:35:00,
2013-02-01 05:45:00,6.4,2.1,30.48,ESE,115,0.0,14.0,82,0.00,,,0.00,Wunderground v.1.15,2013-02-01 11:45:00,
2013-02-01 05:54:00,6.2,2.1,30.49,ESE,115,0.0,14.0,83,0.00,,,0.00,Wunderground v.1.15,2013-02-01 11:54:00,
2013-02-01 06:05:00,5.7,1.7,30.49,ESE,115,0.0,14.0,83,0.00,,,0.00,Wunderground v.1.15,2013-02-01 12:05:00,
2013-02-01 06:15:00,5.5,1.7,30.49,ESE,115,0.0,14.0,84,0.00,,,0.00,Wunderground v.1.15,2013-02-01 12:15:00,
2013-02-01 06:25:00,5.7,2.2,30.49,ESE,115,0.0,14.0,85,0.00,,,0.00,Wunderground v.1.15,2013-02-01 12:25:00,
2013-02-01 06:35:00,5.7,2.2,30.49,NNE,23,0.0,14.0,85,0.00,,,0.00,Wunderground v.1.15,2013-02-01 12:35:00,
2013-02-01 06:44:00,5.6,2.1,30.49,NNE,23,0.0,14.0,85,0.00,,,0.00,Wunderground v.1.15,2013-02-01 12:44:00,
2013-02-01 06:50:00,5.5,2.0,30.49,NE,46,0.0,14.0,85,0.00,,,0.00,Wunderground v.1.15,2013-02-01 12:50:00,
2013-02-01 07:00:00,5.3,1.8,30.49,NE,46,0.0,14.0,85,0.00,,,0.00,Wunderground v.1.15,2013-02-01 13:00:00,
2013-02-01 07:10:00,5.1,1.8,30.49,North,351,0.0,14.0,86,0.00,,,0.00,Wunderground v.1.15,2013-02-01 13:10:00,
2013-02-01 07:19:00,5.0,2.0,30.49,North,351,0.0,14.0,87,0.00,,,0.00,Wunderground v.1.15,2013-02-01 13:19:00,
2013-02-01 07:30:00,5.4,2.4,30.49,North,352,0.0,14.0,87,0.00,,,0.00,Wunderground v.1.15,2013-02-01 13:30:00,
2013-02-01 07:40:00,5.5,2.5,30.49,North,351,0.0,14.0,87,0.00,,,0.00,Wunderground v.1.15,2013-02-01 13:40:00,
2013-02-01 07:50:00,6.8,4.0,30.50,SE,130,0.0,14.0,88,0.00,,,0.00,Wunderground v.1.15,2013-02-01 13:50:00,
2013-02-01 08:00:00,9.0,5.4,30.51,ESE,103,0.0,14.0,85,0.00,,,0.00,Wunderground v.1.15,2013-02-01 14:00:00,
2013-02-01 08:05:00,10.3,6.4,30.51,East,94,0.0,14.0,84,0.00,,,0.00,Wunderground v.1.15,2013-02-01 14:05:00,
2013-02-01 08:15:00,11.6,6.6,30.52,SSW,210,0.0,14.0,80,0.00,,,0.00,Wunderground v.1.15,2013-02-01 14:15:00,
2013-02-01 08:25:00,12.6,7.6,30.53,SE,141,0.0,14.0,80,0.00,,,0.00,Wunderground v.1.15,2013-02-01 14:25:00,
2013-02-01 08:34:00,13.7,7.2,30.53,SSE,162,1.0,14.0,75,0.00,,,0.00,Wunderground v.1.15,2013-02-01 14:34:00,
2013-02-01 08:40:00,13.5,6.5,30.54,ESE,108,1.0,14.0,73,0.00,,,0.00,Wunderground v.1.15,2013-02-01 14:40:00,
2013-02-01 08:45:00,13.5,6.5,30.54,SE,125,1.0,14.0,73,0.00,,,0.00,Wunderground v.1.15,2013-02-01 14:45:00,
2013-02-01 08:55:00,14.0,6.6,30.55,SE,145,2.0,4.0,72,0.00,,,0.00,Wunderground v.1.15,2013-02-01 14:55:00,
2013-02-01 09:05:00,13.8,5.5,30.56,SSE,162,3.0,14.0,69,0.00,,,0.00,Wunderground v.1.15,2013-02-01 15:05:00,
2013-02-01 09:10:00,13.6,5.0,30.56,ESE,122,3.0,3.0,68,0.00,,,0.00,Wunderground v.1.15,2013-02-01 15:10:00,
2013-02-01 09:15:00,14.0,6.0,30.56,SE,134,3.0,5.0,70,0.00,,,0.00,Wunderground v.1.15,2013-02-01 15:15:00,
2013-02-01 09:24:00,14.4,5.4,30.55,ESE,115,3.0,14.0,67,0.00,,,0.00,Wunderground v.1.15,2013-02-01 15:24:00,
2013-02-01 09:30:00,14.4,5.4,30.55,East,101,3.0,3.0,67,0.00,,,0.00,Wunderground v.1.15,2013-02-01 15:30:00,
2013-02-01 09:40:00,14.9,5.2,30.55,ESE,120,3.0,14.0,65,0.00,,,0.00,Wunderground v.1.15,2013-02-01 15:40:00,
2013-02-01 09:50:00,15.2,5.2,30.54,NNE,32,3.0,3.0,64,0.00,,,0.00,Wunderground v.1.15,2013-02-01 15:50:00,
2013-02-01 09:55:00,16.3,6.6,30.54,ESE,120,1.0,4.0,65,0.00,,,0.00,Wunderground v.1.15,2013-02-01 15:55:00,
2013-02-01 10:05:00,17.0,6.2,30.54,ESE,111,2.0,14.0,62,0.00,,,0.00,Wunderground v.1.15,2013-02-01 16:05:00,
2013-02-01 10:15:00,18.4,6.8,30.54,ESE,123,1.0,14.0,60,0.00,,,0.00,Wunderground v.1.15,2013-02-01 16:15:00,
2013-02-01 10:25:00,18.8,6.4,30.54,West,271,1.0,14.0,58,0.00,,,0.00,Wunderground v.1.15,2013-02-01 16:25:00,
2013-02-01 10:34:00,19.9,6.7,30.53,East,79,1.0,14.0,56,0.00,,,0.00,Wunderground v.1.15,2013-02-01 16:34:00,
2013-02-01 10:45:00,20.6,7.0,30.53,North,352,1.0,14.0,55,0.00,,,0.00,Wunderground v.1.15,2013-02-01 16:45:00,
2013-02-01 10:55:00,20.3,5.5,30.52,East,80,1.0,14.0,52,0.00,,,0.00,Wunderground v.1.15,2013-02-01 16:55:00,
2013-02-01 11:05:00,21.8,6.8,30.51,SSE,154,0.0,14.0,52,0.00,,,0.00,Wunderground v.1.15,2013-02-01 17:05:00,
2013-02-01 11:14:00,22.2,5.9,30.51,SSE,148,1.0,2.0,49,0.00,,,0.00,Wunderground v.1.15,2013-02-01 17:14:00,
2013-02-01 11:25:00,22.9,6.1,30.50,ESE,107,1.0,14.0,48,0.00,,,0.00,Wunderground v.1.15,2013-02-01 17:25:00,
2013-02-01 11:35:00,22.9,6.6,30.49,SE,131,1.0,14.0,49,0.00,,,0.00,Wunderground v.1.15,2013-02-01 17:35:00,
2013-02-01 11:45:00,23.7,6.8,30.49,North,354,1.0,14.0,48,0.00,,,0.00,Wunderground v.1.15,2013-02-01 17:45:00,
2013-02-01 11:54:00,24.4,7.9,30.48,SSW,203,1.0,14.0,49,0.00,,,0.00,Wunderground v.1.15,2013-02-01 17:54:00,
2013-02-01 12:05:00,24.8,7.9,30.48,SE,131,2.0,14.0,48,0.00,,,0.00,Wunderground v.1.15,2013-02-01 18:05:00,
2013-02-01 12:15:00,25.8,7.8,30.47,SSE,148,1.0,14.0,46,0.00,,,0.00,Wunderground v.1.15,2013-02-01 18:15:00,
2013-02-01 12:25:00,25.7,7.3,30.46,North,6,1.0,14.0,45,0.00,,,0.00,Wunderground v.1.15,2013-02-01 18:25:00,
2013-02-01 12:34:00,26.9,8.4,30.45,ESE,111,0.0,14.0,45,0.00,,,0.00,Wunderground v.1.15,2013-02-01 18:34:00,
2013-02-01 12:45:00,26.8,8.3,30.44,ENE,66,1.0,14.0,45,0.00,,,0.00,Wunderground v.1.15,2013-02-01 18:45:00,
2013-02-01 12:55:00,27.5,9.9,30.44,SSW,198,1.0,14.0,47,0.00,,,0.00,Wunderground v.1.15,2013-02-01 18:55:00,
2013-02-01 13:05:00,28.5,9.3,30.43,WNW,288,1.0,14.0,44,0.00,,,0.00,Wunderground v.1.15,2013-02-01 19:05:00,
2013-02-01 13:14:00,28.9,9.7,30.43,East,98,1.0,14.0,44,0.00,,,0.00,Wunderground v.1.15,2013-02-01 19:14:00,
2013-02-01 13:25:00,28.2,8.5,30.42,ESE,123,2.0,14.0,43,0.00,,,0.00,Wunderground v.1.15,2013-02-01 19:25:00,
2013-02-01 13:35:00,28.4,9.2,30.41,ESE,113,1.0,4.0,44,0.00,,,0.00,Wunderground v.1.15,2013-02-01 19:35:00,
2013-02-01 13:45:00,28.3,8.1,30.41,NNE,30,2.0,14.0,42,0.00,,,0.00,Wunderground v.1.15,2013-02-01 19:45:00,
2013-02-01 13:54:00,28.4,8.7,30.40,North,5,3.0,14.0,43,0.00,,,0.00,Wunderground v.1.15,2013-02-01 19:54:00,
2013-02-01 14:05:00,28.6,8.9,30.40,SE,135,2.0,14.0,43,0.00,,,0.00,Wunderground v.1.15,2013-02-01 20:05:00,
2013-02-01 14:15:00,28.9,8.6,30.40,ESE,113,1.0,2.0,42,0.00,,,0.00,Wunderground v.1.15,2013-02-01 20:15:00,
2013-02-01 14:25:00,28.1,7.4,30.40,North,6,3.0,14.0,41,0.00,,,0.00,Wunderground v.1.15,2013-02-01 20:25:00,
2013-02-01 14:35:00,28.3,8.6,30.39,ENE,62,1.0,14.0,43,0.00,,,0.00,Wunderground v.1.15,2013-02-01 20:35:00,
2013-02-01 14:45:00,29.0,9.3,30.38,ESE,114,1.0,14.0,43,0.00,,,0.00,Wunderground v.1.15,2013-02-01 20:45:00,
2013-02-01 14:55:00,28.5,8.3,30.38,ESE,102,2.0,14.0,42,0.00,,,0.00,Wunderground v.1.15,2013-02-01 20:55:00,
2013-02-01 15:04:00,28.9,8.6,30.38,North,357,3.0,14.0,42,0.00,,,0.00,Wunderground v.1.15,2013-02-01 21:04:00,
2013-02-01 15:15:00,29.2,9.4,30.38,North,3,2.0,14.0,43,0.00,,,0.00,Wunderground v.1.15,2013-02-01 21:15:00,
2013-02-01 15:25:00,29.2,9.4,30.38,SE,138,1.0,14.0,43,0.00,,,0.00,Wunderground v.1.15,2013-02-01 21:25:00,
2013-02-01 15:35:00,29.2,10.0,30.37,North,11,1.0,14.0,44,0.00,,,0.00,Wunderground v.1.15,2013-02-01 21:35:00,
2013-02-01 15:45:00,29.0,9.8,30.36,ESE,104,1.0,14.0,44,0.00,,,0.00,Wunderground v.1.15,2013-02-01 21:45:00,
2013-02-01 15:54:00,28.8,10.1,30.36,ESE,102,1.0,14.0,45,0.00,,,0.00,Wunderground v.1.15,2013-02-01 21:54:00,
2013-02-01 16:00:00,28.8,10.6,30.36,ESE,108,1.0,1.0,46,0.00,,,0.00,Wunderground v.1.15,2013-02-01 22:00:00,
2013-02-01 16:10:00,28.7,10.0,30.36,East,82,1.0,1.0,45,0.00,,,0.00,Wunderground v.1.15,2013-02-01 22:10:00,
2013-02-01 16:20:00,28.8,11.6,30.35,ESE,114,1.0,14.0,48,0.00,,,0.00,Wunderground v.1.15,2013-02-01 22:20:00,
2013-02-01 16:30:00,28.7,11.5,30.35,North,356,1.0,14.0,48,0.00,,,0.00,Wunderground v.1.15,2013-02-01 22:30:00,
2013-02-01 16:40:00,28.6,11.8,30.34,NNE,16,1.0,14.0,49,0.00,,,0.00,Wunderground v.1.15,2013-02-01 22:40:00,
2013-02-01 16:50:00,28.4,12.1,30.33,NE,41,1.0,14.0,50,0.00,,,0.00,Wunderground v.1.15,2013-02-01 22:50:00,
2013-02-01 17:00:00,28.3,12.0,30.33,NNE,29,2.0,2.0,50,0.00,,,0.00,Wunderground v.1.15,2013-02-01 23:00:00,
2013-02-01 17:09:00,28.1,12.3,30.33,North,357,1.0,14.0,51,0.00,,,0.00,Wunderground v.1.15,2013-02-01 23:09:00,
2013-02-01 17:15:00,28.1,12.3,30.33,NE,43,1.0,14.0,51,0.00,,,0.00,Wunderground v.1.15,2013-02-01 23:15:00,
2013-02-01 17:25:00,28.0,12.6,30.33,NE,56,1.0,14.0,52,0.00,,,0.00,Wunderground v.1.15,2013-02-01 23:25:00,
2013-02-01 17:35:00,28.0,12.6,30.32,NE,45,1.0,14.0,52,0.00,,,0.00,Wunderground v.1.15,2013-02-01 23:35:00,
2013-02-01 17:45:00,28.0,13.1,30.32,NNW,331,1.0,14.0,53,0.00,,,0.00,Wunderground v.1.15,2013-02-01 23:45:00,
2013-02-01 17:54:00,28.0,13.1,30.31,NE,44,1.0,14.0,53,0.00,,,0.00,Wunderground v.1.15,2013-02-01 23:54:00,
2013-02-01 18:05:00,28.1,13.1,30.30,NE,39,1.0,14.0,53,0.00,,,0.00,Wunderground v.1.15,2013-02-02 00:05:00,
2013-02-01 18:15:00,28.2,13.7,30.31,NE,44,0.0,14.0,54,0.00,,,0.00,Wunderground v.1.15,2013-02-02 00:15:00,
2013-02-01 18:25:00,28.3,13.8,30.30,NNE,16,0.0,14.0,54,0.00,,,0.00,Wunderground v.1.15,2013-02-02 00:25:00,
2013-02-01 18:34:00,28.3,14.2,30.29,NE,37,1.0,14.0,55,0.00,,,0.00,Wunderground v.1.15,2013-02-02 00:34:00,
2013-02-01 18:40:00,28.4,14.3,30.29,NE,45,0.0,14.0,55,0.00,,,0.00,Wunderground v.1.15,2013-02-02 00:40:00,
2013-02-01 18:50:00,28.4,14.3,30.29,NE,40,1.0,1.0,55,0.00,,,0.00,Wunderground v.1.15,2013-02-02 00:50:00,
2013-02-01 19:00:00,28.5,14.4,30.29,North,359,1.0,1.0,55,0.00,,,0.00,Wunderground v.1.15,2013-02-02 01:00:00,
2013-02-01 19:09:00,28.6,14.9,30.29,East,84,0.0,14.0,56,0.00,,,0.00,Wunderground v.1.15,2013-02-02 01:09:00,
2013-02-01 19:15:00,28.6,14.9,30.29,North,357,0.0,14.0,56,0.00,,,0.00,Wunderground v.1.15,2013-02-02 01:15:00,
2013-02-01 19:25:00,28.7,15.4,30.28,NE,43,0.0,14.0,57,0.00,,,0.00,Wunderground v.1.15,2013-02-02 01:25:00,
2013-02-01 19:35:00,28.8,15.5,30.28,ESE,110,0.0,14.0,57,0.00,,,0.00,Wunderground v.1.15,2013-02-02 01:35:00,
2013-02-01 19:44:00,28.9,16.0,30.28,ESE,104,0.0,14.0,58,0.00,,,0.00,Wunderground v.1.15,2013-02-02 01:44:00,
2013-02-01 19:55:00,29.0,15.7,30.27,NE,44,1.0,14.0,57,0.00,,,0.00,Wunderground v.1.15,2013-02-02 01:55:00,
2013-02-01 20:05:00,29.2,15.8,30.28,NNE,15,0.0,14.0,57,0.00,,,0.00,Wunderground v.1.15,2013-02-02 02:05:00,
2013-02-01 20:15:00,29.2,16.2,30.29,SW,226,0.0,14.0,58,0.00,,,0.00,Wunderground v.1.15,2013-02-02 02:15:00,
2013-02-01 20:25:00,29.2,15.8,30.27,ENE,60,0.0,14.0,57,0.00,,,0.00,Wunderground v.1.15,2013-02-02 02:25:00,
2013-02-01 20:34:00,29.5,16.1,30.27,NE,41,1.0,14.0,57,0.00,,,0.00,Wunderground v.1.15,2013-02-02 02:34:00,
2013-02-01 20:40:00,29.6,15.8,30.27,ENE,76,1.0,1.0,56,0.00,,,0.00,Wunderground v.1.15,2013-02-02 02:40:00,
2013-02-01 20:50:00,29.8,15.6,30.27,East,101,1.0,14.0,55,0.00,,,0.00,Wunderground v.1.15,2013-02-02 02:50:00,
2013-02-01 21:00:00,29.8,15.2,30.27,ESE,110,0.0,14.0,54,0.00,,,0.00,Wunderground v.1.15,2013-02-02 03:00:00,
2013-02-01 21:09:00,29.8,15.2,30.28,East,90,1.0,14.0,54,0.00,,,0.00,Wunderground v.1.15,2013-02-02 03:09:00,
2013-02-01 21:15:00,29.8,15.2,30.28,ESE,110,1.0,14.0,54,0.00,,,0.00,Wunderground v.1.15,2013-02-02 03:15:00,
2013-02-01 21:25:00,29.9,15.3,30.27,ESE,115,1.0,14.0,54,0.00,,,0.00,Wunderground v.1.15,2013-02-02 03:25:00,
2013-02-01 21:35:00,30.0,15.3,30.28,ESE,122,1.0,14.0,54,0.00,,,0.00,Wunderground v.1.15,2013-02-02 03:35:00,
2013-02-01 21:44:00,29.9,15.3,30.28,East,96,1.0,14.0,54,0.00,,,0.00,Wunderground v.1.15,2013-02-02 03:44:00,
2013-02-01 21:50:00,30.0,14.9,30.28,ESE,110,1.0,1.0,53,0.00,,,0.00,Wunderground v.1.15,2013-02-02 03:50:00,
2013-02-01 22:00:00,29.8,15.2,30.28,East,94,1.0,14.0,54,0.00,,,0.00,Wunderground v.1.15,2013-02-02 04:00:00,
2013-02-01 22:05:00,29.6,15.4,30.28,SSE,154,1.0,14.0,55,0.00,,,0.00,Wunderground v.1.15,2013-02-02 04:05:00,
2013-02-01 22:15:00,29.5,14.9,30.27,ESE,122,1.0,14.0,54,0.00,,,0.00,Wunderground v.1.15,2013-02-02 04:15:00,
2013-02-01 22:25:00,29.4,14.8,30.26,East,97,1.0,14.0,54,0.00,,,0.00,Wunderground v.1.15,2013-02-02 04:25:00,
2013-02-01 22:30:00,29.3,15.1,30.26,ESE,103,0.0,14.0,55,0.00,,,0.00,Wunderground v.1.15,2013-02-02 04:30:00,
2013-02-01 22:39:00,29.3,15.5,30.26,SE,125,1.0,14.0,56,0.00,,,0.00,Wunderground v.1.15,2013-02-02 04:39:00,
2013-02-01 22:45:00,29.5,15.3,30.26,ESE,103,1.0,14.0,55,0.00,,,0.00,Wunderground v.1.15,2013-02-02 04:45:00,
2013-02-01 22:50:00,29.5,15.7,30.26,ESE,115,1.0,14.0,56,0.00,,,0.00,Wunderground v.1.15,2013-02-02 04:50:00,
2013-02-01 23:00:00,29.8,15.6,30.25,SE,125,2.0,2.0,55,0.00,,,0.00,Wunderground v.1.15,2013-02-02 05:00:00,
2013-02-01 23:10:00,30.3,15.6,30.25,ENE,67,2.0,14.0,54,0.00,,,0.00,Wunderground v.1.15,2013-02-02 05:10:00,
2013-02-01 23:15:00,30.5,15.8,30.25,ESE,122,2.0,14.0,54,0.00,,,0.00,Wunderground v.1.15,2013-02-02 05:15:00,
2013-02-01 23:24:00,30.8,15.7,30.25,SE,124,2.0,14.0,53,0.00,,,0.00,Wunderground v.1.15,2013-02-02 05:24:00,
2013-02-01 23:30:00,30.9,15.8,30.24,SE,125,2.0,14.0,53,0.00,,,0.00,Wunderground v.1.15,2013-02-02 05:30:00,
2013-02-01 23:40:00,30.9,15.8,30.24,ESE,115,2.0,14.0,53,0.00,,,0.00,Wunderground v.1.15,2013-02-02 05:40:00,
2013-02-01 23:50:00,31.0,15.4,30.24,East,87,2.0,14.0,52,0.00,,,0.00,Wunderground v.1.15,2013-02-02 05:50:00,
2013-02-01 23:59:00,31.0,15.4,30.24,East,97,3.0,3.0,52,0.00,,,0.00,Wunderground v.1.15,2013-02-02 05:59:00,